Regional Weather Roundup
Issued by NWS Albany, NY

Home | Current Version | Previous Version | Text Only | Print | Product List | Glossary On
Versions: 1 2 3 4 5 6 7 8 9 10 11 12 13 14 15 16 17 18 19 20 21 22 23 24 25 26 27 28
000
ASUS41 KALY 031510
RWRALY

NEW YORK STATE HOURLY WEATHER ROUNDUP
NATIONAL WEATHER SERVICE ALBANY NY
1000 AM EST SAT DEC 03 2016

NOTE: "FAIR" INDICATES FEW OR NO CLOUDS BELOW 12,000 FEET WITH NO
SIGNIFICANT WEATHER AND/OR NO OBSTRUCTIONS TO VISIBILITY.

NYZ032-033-038>043-046>054-057>066-NYZ062>081-082-084-031600-
EAST


CITY           SKY/WX    TMP DP  RH WIND       PRES   REMARKS
ALBANY         PTSUNNY   39  27  62 W18G29    30.00R WCI  30
GLENS FALLS    CLOUDY    43  26  51 VRB5      29.97R
POUGHKEEPSIE   PTSUNNY   41  27  57 W16       30.00R
NEWBURGH       PTSUNNY   41  28  60 NW14G30   30.01R
MONTGOMERY     MOSUNNY   42  26  53 NW21G33   30.01R
WHITE PLAINS   PTSUNNY   43  26  51 NW17G23   30.00R
ISLIP          MOSUNNY   46  27  47 NW23G32   29.98R
NEW YORK CITY  PTSUNNY   45  26  47 NW21G32   30.03R
CENTRAL PARK   CLOUDY    44  24  45 MISG      30.06R
$$

NYZ005>009-017-018-044>046-055-056-031600-
CENTRAL


CITY           SKY/WX    TMP DP  RH WIND       PRES   REMARKS
FULTON         CLOUDY    37  27  67 NW14G21   30.11R WCI  28
SYRACUSE       CLOUDY    36  27  69 W10G20    30.10R WCI  28
ROME           CLOUDY    34  33  96 W15       30.09R WCI  24
ELMIRA         PTSUNNY   40  28  62 NW16G28   30.10S WCI  31
BINGHAMTON     FLURRIES  32  26  78 NW18G26   30.05R WCI  20
MONTICELLO     CLOUDY    34  25  69 NW16G26   30.02R WCI  23
$$

NYZ026>034-041>043-087-031600-
NORTH


CITY           SKY/WX    TMP DP  RH WIND       PRES   REMARKS
WATERTOWN      CLOUDY    36  25  64 W14       30.09R WCI  27
FORT DRUM      NOT AVBL
OGDENSBURG     CLOUDY    35  28  74 NW14G23   30.05R WCI  26
MASSENA        CLOUDY    36  26  67 W15G21    30.04R WCI  27
SARANAC LAKE   CLOUDY    28  25  88 NW9       29.93R FOG     WCI  19
PLATTSBURGH    CLOUDY    37  27  67 NW12G18   29.96R WCI  29
$$

NYZ001>004-010>016-019>021-085-031600-
WEST


CITY           SKY/WX    TMP DP  RH WIND       PRES   REMARKS
NIAGARA FALLS  MOSUNNY   42  32  67 NW14      30.17R
BUFFALO        PTSUNNY   40  31  70 NW10      30.17R WCI  33
DUNKIRK        CLOUDY    41  33  73 NW12      30.21R
JAMESTOWN      CLOUDY    36  28  75 W14       30.17R WCI  27
WELLSVILLE     CLOUDY    35  28  75 NW10      30.12R WCI  27
ROCHESTER      LGT RAIN  37  34  89 NW8       30.15R WCI  31
PENN YAN       CLOUDY    37  29  72 W8        30.12R WCI  31
$$

             KEY
       WCI = WIND CHILL INDEX
       VSB = VISIBILITY
       HX  = HEAT INDEX
$$




USA.gov is the U.S. government's official web portal to all federal, state and local government web resources and services.